Flag Weather past 2 weeks in Weymouth, England, United Kingdom

Now
42 °F

Quite cool.


Feels Like: 35 °F
Forecast: 43 / 48 °F
Wind: 10 mph from Northeast

Location: Isle Of Portland

Current Time: Nov 24, 2014 at 7:08:26 AM

Latest Report: Nov 24, 2014 at 6:00 AM


Visibility: 25 mi

Pressure: 30.28 "Hg

Humidity: 80%

Dew point: 36 °F

Location of WeymouthLocation

Historic Weather in Weymouth — Graph

°F

Weymouth temperature yesterday

Maximum temperature yesterday: 52 °F (at 12:00 AM)
Minimum temperature yesterday: 44 °F (at 11:00 PM)
Average temperature yesterday: 48 °F

Past Weeks' High & Low Weather Summary

 TemperatureHumidityPressure
High58 °F (Nov 13, 2:00 PM)96% (Nov 22, 8:00 AM)30.26 "Hg (Nov 22, 8:00 AM)
Low41 °F (Nov 24, 5:00 AM)63% (Nov 9, 11:00 AM)29.21 "Hg (Nov 12, 1:00 AM)
Average53 °F83%29.69 "Hg
* Reported Nov 9 5:00 AM — Nov 24 5:00 AM, Weymouth, Weather by CustomWeather, © 2014

Note: Actual official high and low records may vary slightly from our data, if they occured in-between our weather recording intervals... More about our weather records

Advertising

Weymouth weather history for previous 24 hours

 ConditionsComfort  
Time TempWeatherWind HumidityBarometerVisibility
5:00 AM
Nov 24
41 °FQuite cool.8 mph79%30.26 "Hg28 mi
4:00 AM42 °FQuite cool.10 mph79%30.25 "Hg25 mi
3:00 AM42 °FQuite cool.12 mph79%30.26 "Hg31 mi
2:00 AM42 °FQuite cool.9 mph81%30.25 "Hg28 mi
1:00 AM42 °FQuite cool.9 mph83%30.24 "Hg28 mi
12:00 AM43 °FQuite cool.8 mph86%30.23 "Hg18 mi
11:00 PM
Nov 23
44 °FQuite cool.8 mph83%30.22 "Hg22 mi
10:00 PM44 °FQuite cool.10 mph81%30.19 "Hg19 mi
9:00 PM45 °FQuite cool.12 mph79%30.16 "Hg28 mi
8:00 PM45 °FQuite cool.10 mph85%30.16 "Hg22 mi
7:00 PM46 °FCool.12 mph85%30.15 "Hg19 mi
6:00 PM47 °FCool.15 mph84%30.13 "Hg16 mi
5:00 PM48 °FCool.14 mph84%30.11 "Hg19 mi
4:00 PM48 °FCool.15 mph82%30.09 "Hg22 mi
3:00 PM48 °FCool.12 mph82%30.07 "Hg31 mi
2:00 PM49 °FCool.7 mph84%30.05 "Hg25 mi
1:00 PM48 °FCool.14 mph86%30.05 "Hg25 mi
12:00 PM48 °FLight freezing rain. Cloudy.13 mph88%30.06 "Hg22 mi
11:00 AM48 °FLight rain. Cloudy.8 mph90%30.07 "Hg9 mi
10:00 AM48 °FLight rain. Cloudy.9 mph89%30.05 "Hg8 mi
9:00 AM48 °FLight rain. Cloudy.12 mph90%30.04 "Hg11 mi
8:00 AM48 °FLight rain. Cloudy.13 mph90%30.03 "Hg6 mi
7:00 AM48 °FLight rain. Overcast.15 mph90%30.02 "Hg9 mi
Weather by CustomWeather, © 2014

See weather overviewHow to use our weather pages